| time (UTC) | temp F | wind direction | speed MPH | gust MPH | rain 1hr in | rain 24hr in | rain mn in | humidity % | barometer mb |
| 20260510141631 | 62 | 301 | 10.0 | 18.0 | 0.00 | 0.00 | 0.00 | 59 | 1015.0 |
| 20260510141602 | 61 | 339 | 9.0 | 18.0 | 0.00 | 0.00 | 0.00 | 60 | 1014.9 |
| 20260510141102 | 61 | 351 | 10.0 | 18.0 | 0.00 | 0.00 | 0.00 | 60 | 1015.0 |
| 20260510140601 | 61 | 311 | 9.0 | 18.0 | 0.00 | 0.00 | 0.00 | 60 | 1015.1 |
| 20260510140039 | 62 | 297 | 8.0 | 18.0 | 0.00 | 0.00 | 0.00 | 60 | 1015.1 |
| 20260510140010 | 62 | 318 | 10.0 | 18.0 | 0.00 | 0.00 | 0.00 | 60 | 1014.9 |
| 20260510135514 | 62 | 5 | 8.0 | 16.0 | 0.00 | 0.00 | 0.00 | 59 | 1015.2 |
| 20260510135239 | 62 | 353 | 8.0 | 18.0 | 0.00 | 0.00 | 0.00 | 60 | 1015.2 |
| 20260510134536 | 61 | 302 | 8.0 | 17.0 | 0.00 | 0.00 | 0.00 | 59 | 1015.0 |
| 20260510134448 | 62 | 346 | 9.0 | 18.0 | 0.00 | 0.00 | 0.00 | 59 | 1015.2 |
| 20260510134209 | 62 | 115 | 9.0 | 18.0 | 0.00 | 0.00 | 0.00 | 60 | 1015.1 |
| 20260510133432 | 62 | 340 | 9.0 | 18.0 | 0.00 | 0.00 | 0.00 | 59 | 1015.2 |
| 20260510133019 | 62 | 339 | 7.0 | 17.0 | 0.00 | 0.00 | 0.00 | 61 | 1015.0 |
| 20260510132935 | 63 | 358 | 10.0 | 21.0 | 0.00 | 0.00 | 0.00 | 61 | 1015.2 |
| 20260510132646 | 62 | 339 | 10.0 | 21.0 | 0.00 | 0.00 | 0.00 | 59 | 1015.2 |
| 20260510131920 | 63 | 9 | 9.0 | 21.0 | 0.00 | 0.00 | 0.00 | 59 | 1015.1 |
| 20260510131546 | 62 | 355 | 8.0 | 21.0 | 0.00 | 0.00 | 0.00 | 60 | 1014.9 |
| 20260510131417 | 62 | 296 | 9.0 | 21.0 | 0.00 | 0.00 | 0.00 | 59 | 1015.1 |
| 20260510130915 | 62 | 331 | 10.0 | 20.0 | 0.00 | 0.00 | 0.00 | 60 | 1015.1 |
| 20260510130347 | 62 | 1 | 10.0 | 21.0 | 0.00 | 0.00 | 0.00 | 58 | 1015.0 |
| 20260510130058 | 62 | 3 | 10.0 | 19.0 | 0.00 | 0.00 | 0.00 | 56 | 1014.9 |
| 20260510125834 | 64 | 344 | 8.0 | 21.0 | 0.00 | 0.00 | 0.00 | 56 | 1015.1 |
| 20260510125334 | 63 | 338 | 8.0 | 21.0 | 0.00 | 0.00 | 0.00 | 58 | 1015.2 |
| 20260510124810 | 63 | 16 | 9.0 | 21.0 | 0.00 | 0.00 | 0.00 | 56 | 1015.3 |
| 20260510124520 | 63 | 353 | 9.0 | 17.0 | 0.00 | 0.00 | 0.00 | 58 | 1015.2 |
| 20260510124243 | 63 | 8 | 9.0 | 17.0 | 0.00 | 0.00 | 0.00 | 58 | 1015.4 |
| 20260510123747 | 63 | 309 | 9.0 | 16.0 | 0.00 | 0.00 | 0.00 | 58 | 1015.4 |
| 20260510123221 | 63 | 301 | 10.0 | 16.0 | 0.00 | 0.00 | 0.00 | 57 | 1015.5 |
| 20260510123044 | 63 | 337 | 10.0 | 16.0 | 0.00 | 0.00 | 0.00 | 57 | 1015.3 |
| 20260510122717 | 63 | 308 | 10.0 | 18.0 | 0.00 | 0.00 | 0.00 | 58 | 1015.5 |
| 20260510122213 | 63 | 21 | 10.0 | 19.0 | 0.00 | 0.00 | 0.00 | 58 | 1015.5 |
| 20260510121711 | 63 | 24 | 10.0 | 19.0 | 0.00 | 0.00 | 0.00 | 58 | 1015.7 |
| 20260510121532 | 62 | 339 | 7.0 | 19.0 | 0.00 | 0.00 | 0.00 | 59 | 1015.4 |
| 20260510121205 | 63 | 337 | 10.0 | 17.0 | 0.00 | 0.00 | 0.00 | 58 | 1015.7 |
| 20260510120702 | 62 | 327 | 10.0 | 19.0 | 0.00 | 0.00 | 0.00 | 59 | 1015.7 |
| 20260510120156 | 63 | 337 | 10.0 | 19.0 | 0.00 | 0.00 | 0.00 | 58 | 1015.6 |
| 20260510120129 | 62 | 43 | 10.0 | 18.0 | 0.00 | 0.00 | 0.00 | 58 | 1015.6 |
| 20260510120042 | 62 | 308 | 10.0 | 19.0 | 0.00 | 0.00 | 0.00 | 58 | 1015.4 |
| 20260510115143 | 62 | 349 | 10.0 | 18.0 | 0.00 | 0.00 | 0.00 | 57 | 1015.8 |
| 20260510114640 | 62 | 23 | 9.0 | 18.0 | 0.00 | 0.00 | 0.00 | 60 | 1015.8 |
| 20260510114536 | 62 | 354 | 8.0 | 17.0 | 0.00 | 0.00 | 0.00 | 60 | 1015.6 |
| 20260510114143 | 62 | 8 | 9.0 | 18.0 | 0.00 | 0.00 | 0.00 | 61 | 1015.9 |
| 20260510113619 | 62 | 10 | 10.0 | 25.0 | 0.00 | 0.00 | 0.00 | 60 | 1016.0 |
| 20260510113115 | 62 | 333 | 10.0 | 25.0 | 0.00 | 0.00 | 0.00 | 58 | 1016.0 |
| 20260510113002 | 61 | 360 | 10.0 | 18.0 | 0.00 | 0.00 | 0.00 | 59 | 1015.8 |
| 20260510112615 | 62 | 304 | 11.0 | 25.0 | 0.00 | 0.00 | 0.00 | 61 | 1015.9 |
| 20260510112114 | 61 | 339 | 11.0 | 25.0 | 0.00 | 0.00 | 0.00 | 62 | 1015.8 |
| 20260510111617 | 61 | 318 | 9.0 | 20.0 | 0.00 | 0.00 | 0.00 | 61 | 1015.8 |
| 20260510111551 | 61 | 308 | 9.0 | 21.0 | 0.00 | 0.00 | 0.00 | 61 | 1016.0 |
| 20260510111051 | 60 | 358 | 10.0 | 21.0 | 0.00 | 0.00 | 0.00 | 63 | 1016.0 |
| 20260510110547 | 60 | 337 | 10.0 | 21.0 | 0.00 | 0.00 | 0.00 | 64 | 1016.1 |
| 20260510110327 | 60 | 302 | 10.0 | 21.0 | 0.00 | 0.00 | 0.00 | 63 | 1015.9 |
| 20260510110032 | 59 | 320 | 11.0 | 18.0 | 0.00 | 0.00 | 0.00 | 63 | 1015.8 |
| 20260510105545 | 60 | 335 | 10.0 | 23.0 | 0.00 | 0.00 | 0.00 | 62 | 1016.1 |
| 20260510105044 | 61 | 303 | 10.0 | 23.0 | 0.00 | 0.00 | 0.00 | 60 | 1016.2 |
| 20260510104600 | 61 | 356 | 9.0 | 18.0 | 0.00 | 0.00 | 0.00 | 60 | 1015.9 |
| 20260510104544 | 62 | 322 | 10.0 | 18.0 | 0.00 | 0.00 | 0.00 | 60 | 1016.1 |
| 20260510104044 | 62 | 337 | 11.0 | 22.0 | 0.00 | 0.00 | 0.00 | 62 | 1016.1 |
| 20260510103532 | 61 | 337 | 12.0 | 22.0 | 0.00 | 0.00 | 0.00 | 61 | 1016.1 |
| 20260510103044 | 61 | 301 | 9.0 | 19.0 | 0.00 | 0.00 | 0.00 | 62 | 1015.9 |
| 20260510103032 | 61 | 311 | 11.0 | 19.0 | 0.00 | 0.00 | 0.00 | 62 | 1016.1 |
| 20260510102534 | 61 | 312 | 11.0 | 19.0 | 0.00 | 0.00 | 0.00 | 61 | 1016.2 |
| 20260510102032 | 61 | 293 | 10.0 | 26.0 | 0.00 | 0.00 | 0.00 | 63 | 1016.1 |
| 20260510101535 | 61 | 313 | 10.0 | 26.0 | 0.00 | 0.00 | 0.00 | 62 | 1016.1 |
| 20260510101505 | 60 | 337 | 8.0 | 18.0 | 0.00 | 0.00 | 0.00 | 63 | 1015.9 |
| 20260510101008 | 60 | 338 | 12.0 | 26.0 | 0.00 | 0.00 | 0.00 | 62 | 1016.2 |
| 20260510100509 | 60 | 311 | 11.0 | 26.0 | 0.00 | 0.00 | 0.00 | 61 | 1016.2 |
| 20260510100006 | 59 | 297 | 9.0 | 20.0 | 0.00 | 0.00 | 0.00 | 64 | 1016.0 |
| 20260510095953 | 60 | 312 | 10.0 | 20.0 | 0.00 | 0.00 | 0.00 | 64 | 1016.1 |
| 20260510095453 | 60 | 353 | 10.0 | 20.0 | 0.00 | 0.00 | 0.00 | 63 | 1016.2 |
| 20260510094953 | 60 | 317 | 10.0 | 20.0 | 0.00 | 0.00 | 0.00 | 65 | 1016.2 |
| 20260510094525 | 58 | 13 | 8.0 | 20.0 | 0.00 | 0.00 | 0.00 | 66 | 1016.0 |
| 20260510094445 | 59 | 39 | 11.0 | 20.0 | 0.00 | 0.00 | 0.00 | 67 | 1016.2 |
| 20260510093947 | 59 | 349 | 12.0 | 21.0 | 0.00 | 0.00 | 0.00 | 66 | 1016.2 |
| 20260510093423 | 58 | 346 | 12.0 | 21.0 | 0.00 | 0.00 | 0.00 | 65 | 1016.2 |
| 20260510093109 | 58 | 307 | 11.0 | 21.0 | 0.00 | 0.00 | 0.00 | 65 | 1016.1 |
| 20260510092904 | 59 | 292 | 11.0 | 24.0 | 0.00 | 0.00 | 0.00 | 65 | 1016.2 |
| 20260510092342 | 59 | 41 | 10.0 | 24.0 | 0.00 | 0.00 | 0.00 | 67 | 1016.2 |
| 20260510091823 | 58 | 353 | 11.0 | 24.0 | 0.00 | 0.00 | 0.00 | 68 | 1016.2 |
| 20260510091515 | 57 | 339 | 10.0 | 24.0 | 0.00 | 0.00 | 0.00 | 67 | 1016.2 |
| 20260510091325 | 58 | 330 | 11.0 | 24.0 | 0.00 | 0.00 | 0.00 | 66 | 1016.2 |
| 20260510090825 | 58 | 331 | 10.0 | 20.0 | 0.00 | 0.00 | 0.00 | 68 | 1016.3 |
| 20260510090316 | 57 | 330 | 11.0 | 20.0 | 0.00 | 0.00 | 0.00 | 68 | 1016.4 |
| 20260510090009 | 57 | 288 | 11.0 | 20.0 | 0.00 | 0.00 | 0.00 | 69 | 1016.3 |
| 20260510085812 | 57 | 310 | 11.0 | 20.0 | 0.00 | 0.00 | 0.00 | 69 | 1016.5 |
| 20260510085314 | 57 | 320 | 12.0 | 23.0 | 0.00 | 0.00 | 0.00 | 70 | 1016.5 |
| 20260510084749 | 56 | 339 | 12.0 | 23.0 | 0.00 | 0.00 | 0.00 | 70 | 1016.6 |
| 20260510084505 | 55 | 311 | 11.0 | 20.0 | 0.00 | 0.00 | 0.00 | 71 | 1016.4 |
| 20260510084226 | 56 | 339 | 11.0 | 20.0 | 0.00 | 0.00 | 0.00 | 70 | 1016.6 |
| 20260510083704 | 55 | 0 | 11.0 | 20.0 | 0.00 | 0.00 | 0.00 | 70 | 1016.6 |
| 20260510083136 | 55 | 337 | 11.0 | 22.0 | 0.00 | 0.00 | 0.00 | 71 | 1016.7 |
| 20260510083018 | 55 | 344 | 10.0 | 20.0 | 0.00 | 0.00 | 0.00 | 71 | 1016.5 |
| 20260510082629 | 55 | 344 | 11.0 | 22.0 | 0.00 | 0.00 | 0.00 | 71 | 1016.6 |
| 20260510082132 | 55 | 339 | 12.0 | 22.0 | 0.00 | 0.00 | 0.00 | 71 | 1016.6 |
| 20260510081828 | 55 | 301 | 11.0 | 18.0 | 0.00 | 0.00 | 0.00 | 72 | 1016.7 |
| 20260510081514 | 54 | 351 | 12.0 | 18.0 | 0.00 | 0.00 | 0.00 | 72 | 1016.6 |
| 20260510081100 | 55 | 306 | 10.0 | 17.0 | 0.00 | 0.00 | 0.00 | 74 | 1016.8 |
| 20260510080548 | 55 | 308 | 10.0 | 17.0 | 0.00 | 0.00 | 0.00 | 74 | 1016.8 |
| 20260510080054 | 54 | 314 | 10.0 | 20.0 | 0.00 | 0.00 | 0.00 | 74 | 1016.7 |
| 20260510080005 | 54 | 299 | 10.0 | 20.0 | 0.00 | 0.00 | 0.00 | 74 | 1016.7 |
| 20260510075440 | 54 | 311 | 11.0 | 20.0 | 0.00 | 0.00 | 0.00 | 74 | 1016.9 |
| 20260510074927 | 54 | 344 | 10.0 | 20.0 | 0.00 | 0.00 | 0.00 | 74 | 1016.9 |
| 20260510074606 | 53 | 323 | 11.0 | 20.0 | 0.00 | 0.00 | 0.00 | 75 | 1016.7 |
| 20260510074428 | 53 | 332 | 9.0 | 20.0 | 0.00 | 0.00 | 0.00 | 76 | 1016.8 |
| 20260510074147 | 53 | 19 | 9.0 | 19.0 | 0.00 | 0.00 | 0.00 | 76 | 1016.7 |
| 20260510073647 | 53 | 3 | 9.0 | 19.0 | 0.00 | 0.00 | 0.00 | 77 | 1016.7 |
| 20260510073040 | 52 | 335 | 8.0 | 20.0 | 0.00 | 0.00 | 0.00 | 77 | 1016.6 |
| 20260510072858 | 52 | 313 | 11.0 | 26.0 | 0.00 | 0.00 | 0.00 | 77 | 1016.7 |
| 20260510072329 | 52 | 337 | 11.0 | 26.0 | 0.00 | 0.00 | 0.00 | 77 | 1016.6 |
| 20260510071804 | 52 | 29 | 10.0 | 26.0 | 0.00 | 0.00 | 0.00 | 78 | 1016.8 |
| 20260510071517 | 51 | 336 | 10.0 | 26.0 | 0.00 | 0.00 | 0.00 | 78 | 1016.6 |
| 20260510071236 | 52 | 351 | 10.0 | 26.0 | 0.00 | 0.00 | 0.00 | 78 | 1016.7 |
| 20260510070734 | 51 | 337 | 10.0 | 20.0 | 0.00 | 0.00 | 0.00 | 79 | 1016.6 |
| 20260510070228 | 51 | 39 | 11.0 | 20.0 | 0.00 | 0.00 | 0.00 | 79 | 1016.7 |
| 20260510070029 | 51 | 302 | 12.0 | 20.0 | 0.00 | 0.00 | 0.00 | 79 | 1016.5 |
| 20260510065725 | 51 | 331 | 10.0 | 20.0 | 0.00 | 0.00 | 0.00 | 79 | 1016.7 |
| 20260510065157 | 51 | 314 | 9.0 | 20.0 | 0.00 | 0.00 | 0.00 | 80 | 1016.6 |
| 20260510064656 | 51 | 348 | 10.0 | 20.0 | 0.00 | 0.00 | 0.00 | 81 | 1016.6 |
| 20260510064517 | 50 | 325 | 9.0 | 20.0 | 0.00 | 0.00 | 0.00 | 81 | 1016.5 |
| 20260510064346 | 50 | 358 | 10.0 | 20.0 | 0.00 | 0.00 | 0.00 | 81 | 1016.5 |
| 20260510063626 | 50 | 301 | 10.0 | 18.0 | 0.00 | 0.00 | 0.00 | 82 | 1016.6 |
| 20260510063319 | 49 | 290 | 10.0 | 18.0 | 0.00 | 0.00 | 0.00 | 82 | 1016.5 |
| 20260510063009 | 49 | 292 | 9.0 | 18.0 | 0.00 | 0.00 | 0.00 | 82 | 1016.4 |
| 20260510062553 | 49 | 341 | 10.0 | 18.0 | 0.00 | 0.00 | 0.00 | 82 | 1016.5 |
| 20260510062049 | 49 | 301 | 9.0 | 18.0 | 0.00 | 0.00 | 0.00 | 82 | 1016.5 |
| 20260510061813 | 49 | 301 | 10.0 | 18.0 | 0.00 | 0.00 | 0.00 | 82 | 1016.5 |
| 20260510061519 | 49 | 316 | 8.0 | 17.0 | 0.00 | 0.00 | 0.00 | 82 | 1016.4 |
| 20260510061039 | 49 | 339 | 10.0 | 18.0 | 0.00 | 0.00 | 0.00 | 83 | 1016.5 |
| 20260510060537 | 49 | 21 | 9.0 | 18.0 | 0.00 | 0.00 | 0.00 | 83 | 1016.5 |
| 20260510060052 | 48 | 317 | 8.0 | 15.0 | 0.00 | 0.00 | 0.00 | 83 | 1016.4 |
| 20260510060010 | 49 | 329 | 9.0 | 15.0 | 0.00 | 0.00 | 0.00 | 83 | 1016.6 |
| 20260510055659 | 48 | 8 | 9.0 | 17.0 | 0.00 | 0.00 | 0.00 | 84 | 1016.5 |
| 20260510054941 | 48 | 306 | 9.0 | 17.0 | 0.00 | 0.00 | 0.00 | 84 | 1016.6 |
| 20260510054505 | 47 | 342 | 8.0 | 16.0 | 0.00 | 0.00 | 0.00 | 84 | 1016.4 |
| 20260510054416 | 48 | 347 | 8.0 | 17.0 | 0.00 | 0.00 | 0.00 | 84 | 1016.5 |
| 20260510053913 | 47 | 309 | 8.0 | 17.0 | 0.00 | 0.00 | 0.00 | 84 | 1016.5 |
| 20260510053412 | 47 | 316 | 9.0 | 17.0 | 0.00 | 0.00 | 0.00 | 84 | 1016.5 |
| 20260510053019 | 47 | 319 | 9.0 | 17.0 | 0.00 | 0.00 | 0.00 | 84 | 1016.3 |
| 20260510052846 | 47 | 304 | 8.0 | 17.0 | 0.00 | 0.00 | 0.00 | 84 | 1016.5 |
| 20260510052320 | 47 | 357 | 8.0 | 16.0 | 0.00 | 0.00 | 0.00 | 83 | 1016.5 |
| 20260510051811 | 47 | 315 | 9.0 | 19.0 | 0.00 | 0.00 | 0.00 | 83 | 1016.6 |
| 20260510051504 | 47 | 303 | 9.0 | 19.0 | 0.00 | 0.00 | 0.00 | 83 | 1016.5 |
| 20260510051309 | 47 | 307 | 9.0 | 19.0 | 0.00 | 0.00 | 0.00 | 83 | 1016.6 |
| 20260510050745 | 47 | 311 | 8.0 | 18.0 | 0.00 | 0.00 | 0.00 | 83 | 1016.7 |
| 20260510050226 | 47 | 323 | 9.0 | 18.0 | 0.00 | 0.00 | 0.00 | 82 | 1016.7 |
| 20260510050053 | 47 | 329 | 7.0 | 18.0 | 0.00 | 0.00 | 0.00 | 82 | 1016.6 |
| 20260510045712 | 47 | 339 | 9.0 | 18.0 | 0.00 | 0.00 | 0.00 | 82 | 1016.8 |
| 20260510045146 | 47 | 332 | 8.0 | 18.0 | 0.00 | 0.00 | 0.00 | 81 | 1016.7 |
| 20260510044618 | 47 | 319 | 7.0 | 15.0 | 0.00 | 0.00 | 0.00 | 80 | 1016.7 |
| 20260510044533 | 47 | 297 | 8.0 | 14.0 | 0.00 | 0.00 | 0.00 | 80 | 1016.6 |
| 20260510044114 | 47 | 299 | 7.0 | 15.0 | 0.00 | 0.00 | 0.00 | 79 | 1016.7 |
| 20260510043547 | 48 | 296 | 8.0 | 19.0 | 0.00 | 0.00 | 0.00 | 79 | 1016.7 |
| 20260510043246 | 48 | 338 | 8.0 | 19.0 | 0.00 | 0.00 | 0.00 | 78 | 1016.6 |
| 20260510043106 | 47 | 15 | 9.0 | 17.0 | 0.00 | 0.00 | 0.00 | 78 | 1016.4 |
| 20260510042455 | 48 | 359 | 9.0 | 19.0 | 0.00 | 0.00 | 0.00 | 77 | 1016.6 |
| 20260510041954 | 48 | 349 | 10.0 | 19.0 | 0.00 | 0.00 | 0.00 | 77 | 1016.6 |
| 20260510041556 | 48 | 339 | 9.0 | 17.0 | 0.00 | 0.00 | 0.00 | 76 | 1016.4 |
| 20260510041425 | 48 | 331 | 10.0 | 17.0 | 0.00 | 0.00 | 0.00 | 76 | 1016.5 |
| 20260510040925 | 48 | 15 | 10.0 | 17.0 | 0.00 | 0.00 | 0.00 | 75 | 1016.6 |
| 20260510040355 | 48 | 315 | 10.0 | 17.0 | 0.00 | 0.00 | 0.00 | 75 | 1016.5 |
| 20260510040115 | 48 | 305 | 10.0 | 17.0 | 0.00 | 0.00 | 0.00 | 74 | 1016.5 |
| 20260510040045 | 48 | 337 | 9.0 | 17.0 | 0.00 | 0.00 | 0.00 | 74 | 1016.3 |
| 20260510035548 | 49 | 339 | 10.0 | 17.0 | 0.00 | 0.00 | 0.00 | 74 | 1016.5 |
| 20260510034802 | 49 | 301 | 10.0 | 17.0 | 0.00 | 0.00 | 0.00 | 73 | 1016.5 |
| 20260510034517 | 48 | 321 | 9.0 | 17.0 | 0.00 | 0.00 | 0.00 | 73 | 1016.4 |
| 20260510034240 | 49 | 22 | 10.0 | 17.0 | 0.00 | 0.00 | 0.00 | 73 | 1016.6 |
| 20260510033742 | 49 | 337 | 9.0 | 17.0 | 0.00 | 0.00 | 0.00 | 73 | 1016.6 |
| 20260510033500 | 49 | 298 | 8.0 | 14.0 | 0.00 | 0.00 | 0.00 | 72 | 1016.7 |
| 20260510033039 | 49 | 337 | 7.0 | 14.0 | 0.00 | 0.00 | 0.00 | 72 | 1016.6 |
| 20260510033003 | 49 | 297 | 8.0 | 15.0 | 0.00 | 0.00 | 0.00 | 72 | 1016.7 |
| 20260510032213 | 50 | 299 | 8.0 | 15.0 | 0.00 | 0.00 | 0.00 | 71 | 1016.8 |
| 20260510031927 | 50 | 343 | 8.0 | 15.0 | 0.00 | 0.00 | 0.00 | 70 | 1016.8 |
| 20260510031505 | 50 | 297 | 8.0 | 15.0 | 0.00 | 0.00 | 0.00 | 70 | 1016.6 |
| 20260510031205 | 50 | 294 | 8.0 | 16.0 | 0.00 | 0.00 | 0.00 | 70 | 1016.7 |
| 20260510030656 | 50 | 17 | 8.0 | 16.0 | 0.00 | 0.00 | 0.00 | 69 | 1016.7 |
| 20260510030157 | 51 | 306 | 9.0 | 17.0 | 0.00 | 0.00 | 0.00 | 69 | 1016.8 |
| 20260510030034 | 50 | 338 | 8.0 | 17.0 | 0.00 | 0.00 | 0.00 | 69 | 1016.6 |
| 20260510025653 | 51 | 305 | 9.0 | 17.0 | 0.00 | 0.00 | 0.00 | 68 | 1016.7 |
| 20260510025156 | 51 | 320 | 9.0 | 15.0 | 0.00 | 0.00 | 0.00 | 68 | 1016.8 |
| 20260510024641 | 51 | 317 | 9.0 | 15.0 | 0.00 | 0.00 | 0.00 | 68 | 1016.8 |
| 20260510024542 | 51 | 331 | 9.0 | 15.0 | 0.00 | 0.00 | 0.00 | 68 | 1016.7 |
| 20260510024405 | 52 | 318 | 7.0 | 15.0 | 0.00 | 0.00 | 0.00 | 68 | 1016.9 |
| 20260510023837 | 52 | 304 | 8.0 | 16.0 | 0.00 | 0.00 | 0.00 | 68 | 1016.8 |
| 20260510023109 | 52 | 24 | 8.0 | 16.0 | 0.00 | 0.00 | 0.00 | 67 | 1016.7 |
| 20260510023032 | 52 | 294 | 8.0 | 16.0 | 0.00 | 0.00 | 0.00 | 67 | 1016.5 |
| 20260510022608 | 52 | 334 | 8.0 | 16.0 | 0.00 | 0.00 | 0.00 | 67 | 1016.6 |
| 20260510022554 | 53 | 311 | 7.0 | 16.0 | 0.00 | 0.00 | 0.00 | 67 | 1016.5 |
| 20260510021607 | 53 | 348 | 7.0 | 17.0 | 0.00 | 0.00 | 0.00 | 67 | 1016.5 |
| 20260510021508 | 52 | 323 | 7.0 | 17.0 | 0.00 | 0.00 | 0.00 | 68 | 1016.4 |
| 20260510021107 | 53 | 343 | 7.0 | 17.0 | 0.00 | 0.00 | 0.00 | 67 | 1016.6 |
| 20260510020605 | 53 | 339 | 7.0 | 17.0 | 0.00 | 0.00 | 0.00 | 67 | 1016.7 |
| 20260510020328 | 53 | 341 | 8.0 | 15.0 | 0.00 | 0.00 | 0.00 | 68 | 1016.7 |
| 20260510020046 | 53 | 327 | 6.0 | 17.0 | 0.00 | 0.00 | 0.00 | 68 | 1016.6 |
| 20260510015547 | 53 | 301 | 9.0 | 17.0 | 0.00 | 0.00 | 0.00 | 68 | 1016.7 |
| 20260510015030 | 53 | 339 | 9.0 | 16.0 | 0.00 | 0.00 | 0.00 | 68 | 1016.6 |
| 20260510014726 | 54 | 301 | 9.0 | 16.0 | 0.00 | 0.00 | 0.00 | 68 | 1016.5 |
| 20260510014521 | 53 | 312 | 7.0 | 16.0 | 0.00 | 0.00 | 0.00 | 68 | 1016.4 |
| 20260510014006 | 54 | 310 | 10.0 | 16.0 | 0.00 | 0.00 | 0.00 | 69 | 1016.4 |
| 20260510013946 | 54 | 304 | 9.0 | 16.0 | 0.00 | 0.00 | 0.00 | 69 | 1016.4 |
| 20260510013043 | 54 | 338 | 9.0 | 15.0 | 0.00 | 0.00 | 0.00 | 70 | 1016.3 |
| 20260510013004 | 54 | 320 | 8.0 | 15.0 | 0.00 | 0.00 | 0.00 | 70 | 1016.5 |
| 20260510012439 | 54 | 332 | 8.0 | 15.0 | 0.00 | 0.00 | 0.00 | 70 | 1016.5 |
| 20260510011937 | 54 | 353 | 7.0 | 14.0 | 0.00 | 0.00 | 0.00 | 71 | 1016.6 |
| 20260510011542 | 54 | 342 | 6.0 | 12.0 | 0.00 | 0.00 | 0.00 | 71 | 1016.5 |
| 20260510011420 | 54 | 353 | 6.0 | 14.0 | 0.00 | 0.00 | 0.00 | 71 | 1016.6 |
| 20260510010921 | 55 | 311 | 7.0 | 14.0 | 0.00 | 0.00 | 0.00 | 72 | 1016.6 |
| 20260510010416 | 55 | 316 | 7.0 | 14.0 | 0.00 | 0.00 | 0.00 | 72 | 1016.5 |
| 20260510010121 | 54 | 349 | 5.0 | 13.0 | 0.00 | 0.00 | 0.00 | 72 | 1016.4 |
| 20260510005903 | 55 | 301 | 6.0 | 13.0 | 0.00 | 0.00 | 0.00 | 72 | 1016.6 |
| 20260510005405 | 55 | 316 | 6.0 | 13.0 | 0.00 | 0.00 | 0.00 | 72 | 1016.6 |
| 20260510005057 | 55 | 339 | 6.0 | 13.0 | 0.00 | 0.00 | 0.00 | 73 | 1016.5 |
| 20260510004610 | 55 | 338 | 5.0 | 13.0 | 0.00 | 0.00 | 0.00 | 73 | 1016.5 |
| 20260510004332 | 55 | 350 | 5.0 | 13.0 | 0.00 | 0.00 | 0.00 | 73 | 1016.7 |
| 20260510003829 | 55 | 313 | 5.0 | 11.0 | 0.00 | 0.00 | 0.00 | 74 | 1016.7 |
| 20260510003327 | 55 | 342 | 5.0 | 11.0 | 0.00 | 0.00 | 0.00 | 74 | 1016.6 |
| 20260510003105 | 55 | 314 | 5.0 | 11.0 | 0.00 | 0.00 | 0.00 | 74 | 1016.5 |
| 20260510002803 | 55 | 288 | 5.0 | 11.0 | 0.00 | 0.00 | 0.00 | 74 | 1016.7 |
| 20260510002257 | 55 | 307 | 6.0 | 14.0 | 0.00 | 0.00 | 0.00 | 74 | 1016.6 |
| 20260510001757 | 56 | 334 | 7.0 | 14.0 | 0.00 | 0.00 | 0.00 | 75 | 1016.7 |
| 20260510001535 | 55 | 337 | 7.0 | 12.0 | 0.00 | 0.00 | 0.00 | 75 | 1016.6 |
| 20260510001256 | 56 | 306 | 8.0 | 14.0 | 0.00 | 0.00 | 0.00 | 75 | 1016.7 |
| 20260510000756 | 56 | 302 | 8.0 | 14.0 | 0.00 | 0.00 | 0.00 | 76 | 1016.7 |
| 20260510000259 | 56 | 316 | 8.0 | 13.0 | 0.00 | 0.00 | 0.00 | 76 | 1016.6 |
| 20260510000016 | 55 | 306 | 7.0 | 13.0 | 0.00 | 0.00 | 0.00 | 76 | 1016.5 |
| 20260509235955 | 56 | 334 | 7.0 | 13.0 | 0.00 | 0.00 | 0.00 | 76 | 1016.6 |
| 20260509235212 | 56 | 302 | 6.0 | 12.0 | 0.00 | 0.00 | 0.00 | 76 | 1016.6 |
| 20260509234712 | 56 | 344 | 6.0 | 12.0 | 0.00 | 0.00 | 0.00 | 76 | 1016.6 |
| 20260509234621 | 55 | 354 | 6.0 | 12.0 | 0.00 | 0.00 | 0.00 | 76 | 1016.5 |
| 20260509234209 | 56 | 312 | 6.0 | 11.0 | 0.00 | 0.00 | 0.00 | 77 | 1016.7 |
| 20260509233929 | 56 | 312 | 6.0 | 11.0 | 0.00 | 0.00 | 0.00 | 78 | 1016.7 |
| 20260509233139 | 56 | 323 | 6.0 | 11.0 | 0.00 | 0.00 | 0.00 | 78 | 1016.7 |
| 20260509233006 | 55 | 313 | 7.0 | 11.0 | 0.00 | 0.00 | 0.00 | 78 | 1016.5 |
| 20260509232850 | 56 | 311 | 6.0 | 11.0 | 0.00 | 0.00 | 0.00 | 78 | 1016.6 |
| 20260509232127 | 56 | 311 | 4.0 | 9.0 | 0.00 | 0.00 | 0.00 | 78 | 1016.6 |
| 20260509231557 | 56 | 339 | 3.0 | 8.0 | 0.00 | 0.00 | 0.00 | 78 | 1016.5 |
| 20260509231525 | 56 | 357 | 3.0 | 8.0 | 0.00 | 0.00 | 0.00 | 78 | 1016.4 |
| 20260509231029 | 56 | 3 | 5.0 | 12.0 | 0.00 | 0.00 | 0.00 | 78 | 1016.5 |
| 20260509230512 | 56 | 304 | 6.0 | 12.0 | 0.00 | 0.00 | 0.00 | 78 | 1016.5 |
| 20260509230046 | 56 | 309 | 5.0 | 12.0 | 0.00 | 0.00 | 0.00 | 78 | 1016.3 |
| 20260509230014 | 56 | 306 | 6.0 | 12.0 | 0.00 | 0.00 | 0.00 | 77 | 1016.4 |
| 20260509225457 | 56 | 304 | 5.0 | 12.0 | 0.00 | 0.00 | 0.00 | 77 | 1016.4 |
| 20260509224957 | 57 | 304 | 5.0 | 9.0 | 0.00 | 0.00 | 0.00 | 77 | 1016.4 |
| 20260509224538 | 56 | 299 | 4.0 | 11.0 | 0.00 | 0.00 | 0.00 | 77 | 1016.2 |
| 20260509224500 | 57 | 339 | 6.0 | 12.0 | 0.00 | 0.00 | 0.00 | 77 | 1016.3 |
| 20260509224213 | 57 | 285 | 6.0 | 12.0 | 0.00 | 0.00 | 0.00 | 77 | 1016.3 |
| 20260509223454 | 57 | 313 | 6.0 | 12.0 | 0.00 | 0.00 | 0.00 | 77 | 1016.2 |
| 20260509223056 | 56 | 342 | 7.0 | 12.0 | 0.00 | 0.00 | 0.00 | 76 | 1016.1 |
| 20260509222926 | 57 | 313 | 6.0 | 12.0 | 0.00 | 0.00 | 0.00 | 76 | 1016.3 |
| 20260509222423 | 57 | 301 | 7.0 | 12.0 | 0.00 | 0.00 | 0.00 | 76 | 1016.3 |
| 20260509221855 | 57 | 299 | 8.0 | 11.0 | 0.00 | 0.00 | 0.00 | 76 | 1016.2 |
| 20260509221526 | 56 | 304 | 7.0 | 11.0 | 0.00 | 0.00 | 0.00 | 75 | 1016.0 |
| 20260509221353 | 57 | 292 | 7.0 | 11.0 | 0.00 | 0.00 | 0.00 | 75 | 1016.1 |
| 20260509220847 | 57 | 303 | 7.0 | 11.0 | 0.00 | 0.00 | 0.00 | 74 | 1016.2 |
| 20260509220345 | 57 | 313 | 7.0 | 11.0 | 0.00 | 0.00 | 0.00 | 73 | 1016.2 |
| 20260509220258 | 57 | 283 | 7.0 | 10.0 | 0.00 | 0.00 | 0.00 | 73 | 1016.2 |
| 20260509220108 | 56 | 303 | 6.0 | 10.0 | 0.00 | 0.00 | 0.00 | 73 | 1016.0 |
| 20260509215807 | 57 | 313 | 8.0 | 12.0 | 0.00 | 0.00 | 0.00 | 72 | 1016.2 |
| 20260509214810 | 57 | 298 | 7.0 | 12.0 | 0.00 | 0.00 | 0.00 | 71 | 1016.2 |
| 20260509214520 | 57 | 304 | 7.0 | 10.0 | 0.00 | 0.00 | 0.00 | 70 | 1016.1 |
| 20260509214506 | 58 | 305 | 7.0 | 12.0 | 0.00 | 0.00 | 0.00 | 70 | 1016.3 |
| 20260509213738 | 58 | 305 | 8.0 | 12.0 | 0.00 | 0.00 | 0.00 | 68 | 1016.2 |
| 20260509213224 | 58 | 304 | 7.0 | 12.0 | 0.00 | 0.00 | 0.00 | 68 | 1016.2 |
| 20260509213015 | 58 | 334 | 7.0 | 12.0 | 0.00 | 0.00 | 0.00 | 67 | 1016.0 |
| 20260509212956 | 59 | 308 | 6.0 | 10.0 | 0.00 | 0.00 | 0.00 | 67 | 1016.1 |
| 20260509212210 | 59 | 303 | 6.0 | 10.0 | 0.00 | 0.00 | 0.00 | 66 | 1016.1 |
| 20260509211909 | 59 | 303 | 7.0 | 11.0 | 0.00 | 0.00 | 0.00 | 66 | 1016.1 |
| 20260509211554 | 59 | 323 | 6.0 | 10.0 | 0.00 | 0.00 | 0.00 | 66 | 1015.9 |
| 20260509211144 | 59 | 302 | 7.0 | 10.0 | 0.00 | 0.00 | 0.00 | 66 | 1016.0 |
| 20260509210855 | 59 | 296 | 7.0 | 11.0 | 0.00 | 0.00 | 0.00 | 66 | 1016.0 |
| 20260509210131 | 60 | 298 | 7.0 | 10.0 | 0.00 | 0.00 | 0.00 | 66 | 1016.1 |
| 20260509210104 | 59 | 301 | 6.0 | 10.0 | 0.00 | 0.00 | 0.00 | 66 | 1015.9 |
| 20260509205626 | 60 | 320 | 7.0 | 11.0 | 0.00 | 0.00 | 0.00 | 66 | 1016.0 |
| 20260509205121 | 60 | 300 | 7.0 | 11.0 | 0.00 | 0.00 | 0.00 | 66 | 1016.0 |
| 20260509204620 | 60 | 314 | 6.0 | 10.0 | 0.00 | 0.00 | 0.00 | 66 | 1015.9 |
| 20260509204529 | 60 | 304 | 5.0 | 10.0 | 0.00 | 0.00 | 0.00 | 66 | 1015.7 |
| 20260509204119 | 60 | 302 | 7.0 | 10.0 | 0.00 | 0.00 | 0.00 | 65 | 1015.8 |
| 20260509203559 | 60 | 299 | 7.0 | 10.0 | 0.00 | 0.00 | 0.00 | 65 | 1015.7 |
| 20260509203106 | 60 | 313 | 7.0 | 12.0 | 0.00 | 0.00 | 0.00 | 65 | 1015.5 |
| 20260509203058 | 61 | 322 | 7.0 | 12.0 | 0.00 | 0.00 | 0.00 | 65 | 1015.7 |
| 20260509202532 | 61 | 293 | 6.0 | 11.0 | 0.00 | 0.00 | 0.00 | 65 | 1015.6 |
| 20260509202008 | 61 | 303 | 5.0 | 10.0 | 0.00 | 0.00 | 0.00 | 64 | 1015.7 |
| 20260509201523 | 60 | 304 | 5.0 | 8.0 | 0.00 | 0.00 | 0.00 | 65 | 1015.6 |
| 20260509201442 | 61 | 304 | 4.0 | 8.0 | 0.00 | 0.00 | 0.00 | 65 | 1015.7 |
| 20260509200921 | 61 | 295 | 4.0 | 8.0 | 0.00 | 0.00 | 0.00 | 65 | 1015.7 |
| 20260509200419 | 61 | 312 | 3.0 | 8.0 | 0.00 | 0.00 | 0.00 | 65 | 1015.7 |
| 20260509200110 | 60 | 306 | 4.0 | 7.0 | 0.00 | 0.00 | 0.00 | 65 | 1015.5 |
| 20260509195920 | 61 | 306 | 1.0 | 6.0 | 0.00 | 0.00 | 0.00 | 65 | 1015.7 |
| 20260509195418 | 61 | 275 | 0.0 | 0.0 | 0.00 | 0.00 | 0.00 | 66 | 1015.6 |
| 20260509195139 | 61 | 236 | 0.0 | 0.0 | 0.00 | 0.00 | 0.00 | 65 | 1015.6 |
| 20260509194545 | 61 | 236 | 0.0 | 0.0 | 0.00 | 0.00 | 0.00 | 65 | 1015.5 |
| 20260509194354 | 61 | 236 | 0.0 | 0.0 | 0.00 | 0.00 | 0.00 | 65 | 1015.6 |
| 20260509193850 | 62 | 232 | 0.0 | 0.0 | 0.00 | 0.00 | 0.00 | 64 | 1015.6 |
| 20260509193351 | 62 | 232 | 0.0 | 0.0 | 0.00 | 0.00 | 0.00 | 64 | 1015.5 |
| 20260509193029 | 61 | 158 | 0.0 | 0.0 | 0.00 | 0.00 | 0.00 | 63 | 1015.4 |
| 20260509192843 | 62 | 157 | 0.0 | 0.0 | 0.00 | 0.00 | 0.00 | 63 | 1015.6 |
| 20260509192341 | 62 | 145 | 0.0 | 0.0 | 0.00 | 0.00 | 0.00 | 63 | 1015.5 |
| 20260509191840 | 62 | 145 | 0.0 | 0.0 | 0.00 | 0.00 | 0.00 | 63 | 1015.5 |
| 20260509191603 | 62 | 145 | 0.0 | 0.0 | 0.00 | 0.00 | 0.00 | 63 | 1015.5 |
| 20260509191534 | 62 | 145 | 0.0 | 0.0 | 0.00 | 0.00 | 0.00 | 64 | 1015.3 |
| 20260509190816 | 62 | 145 | 0.0 | 0.0 | 0.00 | 0.00 | 0.00 | 63 | 1015.4 |
| 20260509190255 | 62 | 145 | 0.0 | 0.0 | 0.00 | 0.00 | 0.00 | 62 | 1015.4 |
| 20260509190012 | 62 | 145 | 0.0 | 0.0 | 0.00 | 0.00 | 0.00 | 60 | 1015.2 |
| 20260509185956 | 63 | 145 | 0.0 | 0.0 | 0.00 | 0.00 | 0.00 | 61 | 1015.3 |
| 20260509185209 | 63 | 145 | 0.0 | 0.0 | 0.00 | 0.00 | 0.00 | 59 | 1015.3 |
| 20260509184659 | 63 | 145 | 0.0 | 0.0 | 0.00 | 0.00 | 0.00 | 58 | 1015.4 |
| 20260509184601 | 62 | 145 | 0.0 | 0.0 | 0.00 | 0.00 | 0.00 | 59 | 1015.2 |
| 20260509184200 | 63 | 145 | 0.0 | 0.0 | 0.00 | 0.00 | 0.00 | 59 | 1015.5 |
| 20260509183638 | 63 | 145 | 0.0 | 1.0 | 0.00 | 0.00 | 0.00 | 58 | 1015.5 |
| 20260509183138 | 63 | 145 | 0.0 | 1.0 | 0.00 | 0.00 | 0.00 | 58 | 1015.4 |
| 20260509183010 | 63 | 145 | 0.0 | 1.0 | 0.00 | 0.00 | 0.00 | 58 | 1015.2 |
| 20260509182631 | 63 | 145 | 0.0 | 0.0 | 0.00 | 0.00 | 0.00 | 58 | 1015.4 |
| 20260509182122 | 64 | 145 | 0.0 | 0.0 | 0.00 | 0.00 | 0.00 | 58 | 1015.4 |
| 20260509181835 | 64 | 145 | 0.0 | 0.0 | 0.00 | 0.00 | 0.00 | 57 | 1015.4 |
| 20260509181823 | 64 | 145 | 0.0 | 0.0 | 0.00 | 0.00 | 0.00 | 57 | 1015.4 |
| 20260509181537 | 63 | 145 | 0.0 | 0.0 | 0.00 | 0.00 | 0.00 | 57 | 1015.3 |
| 20260509180554 | 64 | 145 | 0.0 | 0.0 | 0.00 | 0.00 | 0.00 | 57 | 1015.3 |
| 20260509180029 | 64 | 145 | 0.0 | 0.0 | 0.00 | 0.00 | 0.00 | 56 | 1015.3 |
| 20260509180019 | 63 | 145 | 0.0 | 0.0 | 0.00 | 0.00 | 0.00 | 56 | 1015.2 |
| 20260509175507 | 64 | 145 | 0.0 | 0.0 | 0.00 | 0.00 | 0.00 | 56 | 1015.4 |
| 20260509175005 | 64 | 145 | 0.0 | 0.0 | 0.00 | 0.00 | 0.00 | 56 | 1015.4 |
| 20260509174548 | 64 | 145 | 0.0 | 0.0 | 0.00 | 0.00 | 0.00 | 55 | 1015.2 |
| 20260509174507 | 64 | 145 | 0.0 | 0.0 | 0.00 | 0.00 | 0.00 | 56 | 1015.3 |
| 20260509174219 | 64 | 145 | 0.0 | 0.0 | 0.00 | 0.00 | 0.00 | 55 | 1015.3 |
| 20260509173932 | 65 | 145 | 0.0 | 0.0 | 0.00 | 0.00 | 0.00 | 55 | 1015.4 |
| 20260509173101 | 64 | 145 | 0.0 | 0.0 | 0.00 | 0.00 | 0.00 | 53 | 1015.2 |
| 20260509172932 | 65 | 142 | 0.0 | 0.0 | 0.00 | 0.00 | 0.00 | 54 | 1015.4 |
| 20260509172430 | 65 | 142 | 0.0 | 0.0 | 0.00 | 0.00 | 0.00 | 53 | 1015.4 |
| 20260509171904 | 65 | 143 | 0.0 | 1.0 | 0.00 | 0.00 | 0.00 | 53 | 1015.4 |
| 20260509171600 | 65 | 143 | 0.0 | 1.0 | 0.00 | 0.00 | 0.00 | 52 | 1015.4 |
| 20260509171530 | 65 | 143 | 0.0 | 0.0 | 0.00 | 0.00 | 0.00 | 52 | 1015.3 |
| 20260509170811 | 66 | 143 | 0.0 | 1.0 | 0.00 | 0.00 | 0.00 | 52 | 1015.4 |
| 20260509170759 | 66 | 143 | 0.0 | 1.0 | 0.00 | 0.00 | 0.00 | 52 | 1015.5 |
| 20260509170022 | 66 | 143 | 0.0 | 0.0 | 0.00 | 0.00 | 0.00 | 53 | 1015.3 |
| 20260509170018 | 66 | 143 | 0.0 | 0.0 | 0.00 | 0.00 | 0.00 | 54 | 1015.5 |
| 20260509165258 | 67 | 143 | 0.0 | 0.0 | 0.00 | 0.00 | 0.00 | 52 | 1015.5 |
| 20260509164738 | 67 | 143 | 0.0 | 0.0 | 0.00 | 0.00 | 0.00 | 52 | 1015.5 |
| 20260509164518 | 66 | 143 | 0.0 | 0.0 | 0.00 | 0.00 | 0.00 | 51 | 1015.3 |
| 20260509164215 | 67 | 143 | 0.0 | 0.0 | 0.00 | 0.00 | 0.00 | 49 | 1015.5 |
| 20260509163928 | 67 | 143 | 0.0 | 0.0 | 0.00 | 0.00 | 0.00 | 52 | 1015.5 |
| 20260509163205 | 67 | 143 | 0.0 | 0.0 | 0.00 | 0.00 | 0.00 | 52 | 1015.6 |
| 20260509163026 | 67 | 143 | 0.0 | 0.0 | 0.00 | 0.00 | 0.00 | 53 | 1015.4 |
| 20260509162638 | 67 | 143 | 0.0 | 0.0 | 0.00 | 0.00 | 0.00 | 51 | 1015.6 |
| 20260509162139 | 67 | 143 | 0.0 | 0.0 | 0.00 | 0.00 | 0.00 | 52 | 1015.6 |
| 20260509161634 | 67 | 143 | 0.0 | 0.0 | 0.00 | 0.00 | 0.00 | 51 | 1015.7 |
| 20260509161520 | 67 | 143 | 0.0 | 0.0 | 0.00 | 0.00 | 0.00 | 53 | 1015.5 |
| 20260509161129 | 68 | 143 | 0.0 | 0.0 | 0.00 | 0.00 | 0.00 | 53 | 1015.7 |
| 20260509160629 | 68 | 143 | 0.0 | 0.0 | 0.00 | 0.00 | 0.00 | 52 | 1015.7 |
| 20260509160128 | 68 | 133 | 0.0 | 0.0 | 0.00 | 0.00 | 0.00 | 54 | 1015.8 |
| 20260509160046 | 67 | 133 | 0.0 | 0.0 | 0.00 | 0.00 | 0.00 | 54 | 1015.6 |
| 20260509155601 | 68 | 133 | 0.0 | 0.0 | 0.00 | 0.00 | 0.00 | 53 | 1015.8 |
| 20260509155100 | 69 | 121 | 0.0 | 0.0 | 0.00 | 0.00 | 0.00 | 53 | 1015.7 |
| 20260509154554 | 69 | 121 | 0.0 | 0.0 | 0.00 | 0.00 | 0.00 | 53 | 1015.7 |
| 20260509154505 | 69 | 121 | 0.0 | 0.0 | 0.00 | 0.00 | 0.00 | 53 | 1015.6 |
| 20260509154053 | 69 | 121 | 0.0 | 0.0 | 0.00 | 0.00 | 0.00 | 51 | 1015.7 |
| 20260509153527 | 69 | 121 | 0.0 | 1.0 | 0.00 | 0.00 | 0.00 | 56 | 1015.7 |
| 20260509153044 | 68 | 121 | 0.0 | 0.0 | 0.00 | 0.00 | 0.00 | 54 | 1015.6 |
| 20260509152959 | 69 | 121 | 0.0 | 1.0 | 0.00 | 0.00 | 0.00 | 54 | 1015.8 |
| 20260509152430 | 69 | 121 | 0.0 | 1.0 | 0.00 | 0.00 | 0.00 | 57 | 1015.8 |
| 20260509152147 | 69 | 106 | 0.0 | 1.0 | 0.00 | 0.00 | 0.00 | 54 | 1015.8 |
| 20260509151639 | 69 | 133 | 0.0 | 0.0 | 0.00 | 0.00 | 0.00 | 55 | 1015.7 |
| 20260509151402 | 69 | 119 | 0.0 | 0.0 | 0.00 | 0.00 | 0.00 | 56 | 1015.9 |
| 20260509150832 | 69 | 128 | 0.0 | 0.0 | 0.00 | 0.00 | 0.00 | 59 | 1015.9 |
| 20260509150331 | 68 | 121 | 0.0 | 0.0 | 0.00 | 0.00 | 0.00 | 59 | 1016.0 |
| 20260509150057 | 67 | 125 | 0.0 | 0.0 | 0.00 | 0.00 | 0.00 | 56 | 1015.8 |
| 20260509145826 | 68 | 117 | 0.0 | 0.0 | 0.00 | 0.00 | 0.00 | 59 | 1016.0 |
| 20260509145322 | 69 | 151 | 0.0 | 0.0 | 0.00 | 0.00 | 0.00 | 55 | 1016.1 |
| 20260509144542 | 69 | 152 | 0.0 | 2.0 | 0.00 | 0.00 | 0.00 | 55 | 1016.0 |
| 20260509144256 | 69 | 152 | 0.0 | 2.0 | 0.00 | 0.00 | 0.00 | 57 | 1016.1 |
| 20260509143732 | 69 | 113 | 0.0 | 6.0 | 0.00 | 0.00 | 0.00 | 54 | 1016.1 |
| 20260509143208 | 69 | 108 | 0.0 | 6.0 | 0.00 | 0.00 | 0.00 | 54 | 1016.1 |
| 20260509143032 | 69 | 141 | 0.0 | 6.0 | 0.00 | 0.00 | 0.00 | 54 | 1015.9 |
| 20260509142652 | 69 | 140 | 0.0 | 7.0 | 0.00 | 0.00 | 0.00 | 57 | 1016.1 |